Location: L�Adrech
(44.2500°N, 6.4167°E)
Time: 21:27:23
(UTC+00:00)

Cosmos 2285 Rocket - Pass Details

Date: 07 June 2020
Orbit: 971 x 999 km, 74.0° (Epoch: 11 July)

Event Time Altitude Azimuth Distance (km) Brightness Sun altitude
Rises 00:20:29 0° 337° (NNW) 3,702 7.9 -22.1°
Reaches altitude 10° 00:23:03 10° 337° (NNW) 2,746 7.1 -22.0°
Maximum altitude 00:29:24 77° 252° (WSW) 1,005 3.9 -21.7°
Enters shadow 00:31:53 39° 174° (S) 1,420 4.4 -21.6°
